星链-33717 (STARLINK-33717)

导读

STARLINK-33717是美国于2025年4月25日发射的卫星,隶属于太空探索技术公司SpaceX的星链(Starlink)项目。星链项目旨在构建全球卫星互联网星座,为全球各地提供高速低延迟的宽带互联网服务,该卫星的发射进一步扩充了星链星座的在轨卫星规模,助力完善全球卫星互联网覆盖网络。

基本信息
目录编号:
63648
目录名称:
STARLINK-33717
国际标识:
2025-083Q
轨道中心:
EARTH
卫星名称:
星链-33717
卫星全名:
星链-33717 (STARLINK-33717)
卫星状态:
在轨 (已飞行497 天)
发射日期:
2025-04-25 UTC
国别 :
美国 (US)
星等 :
--
轨道信息
数据来源 国际轨道数据
星历时间: 2026-09-04T05:28:16+0800
20小时前
查看轨道信息
半长轴: 6861.149km
偏心率: 0.0001971
轨道倾角: 43.003°
近地点辐角 249.230°
升交点赤经 78.566°
平近点角 110.834°
近地点: 481.659km
远地点: 484.365km
周期: 94.266分钟
每日圈数: 15.275927
详细信息
固有亮度:
5
最大亮度:
2.5
卫星平台:
Starlink V1.0
覆盖范围:
全球
运营商:
太空探索技术公司
运营商所在国:
美国
制造商(研发单位):
太空探索技术公司
制造商所在国:
美国
使用方式:
暂无
卫星简介
Starlink 计划是 SpaceX 推出的全球卫星互联网项目,通过发射低轨道卫星,为全球尤其是偏远地区提供高速、低延迟的互联网服务。自 2019 年起,Starlink 已部署数千颗卫星,旨在缩小全球数字鸿沟,推动互联网普及。该项目还为军事、航空等行业提供通信支持,带来广泛经济效益。
2D轨道图
3D轨道图
轨道高度分析图
轨道倾角分析图
轨道综合分析图
查看轨道综合分析图
交会数据列表
事件ID 空间交会对象 最接近时刻(TCA) 交会距离 交会风险概率(CRP) 交会风险指数(CRI) 操作
CDM_260906-234606-364806-679621
2026-09-06T
23:46:58+0000
1.040 km
极远距离
1.485774E-5 中风险 0.58
CDM_260907-012106-364806-679621
2026-09-07T
01:21:07+0000
1.085 km
极远距离
1.283896E-5 中风险 0.57
CDM_260906-175905-537606-364821
2026-09-06T
17:59:38+0000
1.086 km
极远距离
1.129768E-5 中风险 0.56
CDM_260907-033905-809406-364821
2026-09-07T
03:39:44+0000
1.179 km
极远距离
8.284816E-6 低风险 0.53
CDM_260906-204606-163906-364821
2026-09-06T
20:46:50+0000
1.834 km
极远距离
2.81481E-6 低风险 0.44
CDM_260906-221206-364806-679621
2026-09-06T
22:12:49+0000
2.117 km
极远距离
1.655797E-6 低风险 0.39
CDM_260905-124905-864506-364821
2026-09-05T
12:49:44+0000
2.551 km
极远距离
1.653381E-6 低风险 0.39
CDM_260907-025506-364806-679621
2026-09-07T
02:55:17+0000
2.223 km
极远距离
1.488961E-6 低风险 0.38
CDM_260907-020505-809406-364821
2026-09-07T
02:05:35+0000
2.937 km
极远距离
8.400174E-7 极低风险 0.33